Back to catalog

USA 371

AliveMilitaryVLEO
NORAD 59831·PAYLOAD·🇺🇸 United States

Launched May 22, 2024 from Vandenberg Space Force Base

Loading…

Next Passes (next 24 hours)

TLE

StaleSource: Mike McCants

Epoch: Aug 25, 2026, 20:13 UTC

1 59831U 24096T   26237.84295130 0.00000000  00000-0  00000-0 0    02
2 59831  70.0232 137.0379 0003004 127.9261 232.0738 14.96713072    02

Track USA 371 in real time with AllMySat

Download on the App Store